CZ-6A DEB, 54493

Orbit data source: Space-Track

CZ-6A DEB, 54493 is space debris in SSO originally from a launch on Fri, 11 Nov 2022 UTC launched from the Taiyaun Space Center, China (TSC). Debris objects in space refer to the collection of defunct objects orbiting the Earth. Examples of debris include non-operational satellites, rocket bodies, and fragments generated from explosions, collisions, or faulty payload assembly.

Loading next visibility...
Identifier
54493, 2022-151HV
Orbit
SSO
Country
Flag of CNCN / PRC
Related business
Manufacturer
SAST
Mission
Spacecraft
Bus & Motor
Unknown
Mass
Unknown
Launch date (UTC)
2022-11-11 (3 years ago)
Launch vehicle
Unknown
Launch site
Taiyaun Space Center, China (TSC)
Object type
Payload
Rocket body
Debris
Shape & HBR
Unknown shape, 0.1 m
Radar Cross Section
Small (<0.1 m²)

Expand to show TLE details & history
Last TLE update: 17 hours ago

TLE from 17 hours ago
0 CZ-6A DEB
1 54493U 22151HV  25351.35793475  .00000094  00000-0  10069-3 0  9997
2 54493  98.9718 317.9121 0185565 234.7375 123.6299 13.88158138155979
Epoch: 2025-12-17T08:35Z
TLE epoch observation values (Epoch: 2025-12-17T08:35:25.562Z)
Latitude
0.00004°
Longitude
102.82664°
Altitude
1,014.847 km
Speed
7.306 km/s
True Right ascension
21h 11m 38s
True Declination
0° 00' 00"
Sunlit
Object was in daylight at epoch
Visualization orbit readout
Latitude
Unknown
Longitude
Unknown
Altitude
Unknown
Speed
Unknown
Apparent Right ascension
Unknown
Apparent Declination
Unknown
Sunlit
N/A
Visualization observer readout
Local Sidereal Time
00:48:06
Azimuth
Unknown
Elevation
Unknown
Doppler factor
Unknown
Orbital elements
Apogee altitude
1,067.961 km
Perigee altitude
796.649 km
Semi-major axis
7,310.442 km
Eccentricity
0.01856
Inclination
98.9718°
RAAN
317.9121°
Arg. of periapsis
234.7375°
True anomaly
125.37769°
Mean anomaly
123.6299°
Eccentric anomaly
124.50605°
Mean motion
3.47238 °/min
Orbital period
103.68 mins
BSTAR
0.00010069
Loading maneuver chart data...
Computing Atmospheric mass density...
Loading historical data...
Loading historical data...
Loading historical data...
Loading historical data...
Loading historical data...
Loading historical data...
Loading historical data...

Documentation

Showing up to 5 results
|